Location: Hohe Wand Waldeggerhaus
(47.8500°N, 16.0440°E)
Time: 08:43:42
(UTC+02:00)

Envisat - Pass Details

Date: 29 May 2024
Orbit: 762 x 764 km, 98.3° (Epoch: 13 June)

Event Time Altitude Azimuth Distance (km) Brightness Sun altitude
Rises 03:05:37 0° 27° (NNE) 3,238 8.2 -14.4°
Reaches altitude 10° 03:08:35 10° 45° (NE) 2,306 6.8 -14.1°
Maximum altitude 03:12:12 19° 90° (E) 1,740 5.3 -13.8°
Drops below altitude 10° 03:15:48 10° 136° (SE) 2,293 5.3 -13.5°
Sets 03:18:43 0° 154° (SSE) 3,213 5.9 -13.2°
